Aberdeen / Amory, MS

6:53 AM CDT on April 23, 2018 (GMT -0500)
Aberdeen / Amory

Weather History for KM40 - November, 2012

Change the Weather History Date:

Thursday, November 29, 2012

  Actual Average (KCBM) Record (KCBM)
Temperature  
Mean Temperature 44 °F -  
Max Temperature 64 °F 59 °F 75 °F (2016)
Min Temperature 23 °F 39 °F 20 °F (2013)
Degree Days  
Heating Degree Days 22    
Moisture  
Dew Point 27 °F    
Average Humidity 60    
Maximum Humidity 81    
Minimum Humidity 52    
Precipitation  
Precipitation 0.00 in - - ()
Sea Level Pressure  
Sea Level Pressure 30.36 in    
Wind  
Wind Speed 1 mph ()    
Max Wind Speed 9 mph    
Max Gust Speed -    
Visibility 7.8 miles    
Events      
Averages and records for this station are not official NWS values.
T = Trace of Precipitation, MM = Missing Value Source: Averaged Metar Reports

Daily Weather History Graph

Daily Weather History Graph

Search for Another Location

Airport or City:

Astronomy

Nov. 29, 2012 Rise Set
Actual Time 6:39 AM CST 4:45 PM CST
Civil Twilight 6:12 AM CST 5:12 PM CST
Nautical Twilight 5:41 AM CST 5:43 PM CST
Astronomical Twilight 5:11 AM CST 6:13 PM CST
Moon 5:48 PM CST (11/29) 7:25 AM CST (11/29)
Length of Visible Light 11h 00m
Length of Day
10h 05m
Full, 99% of the Moon is Illuminated
Nov 29
Full
Dec 6
Last Quarter
Dec 13
New
Dec 19
First Quarter
Dec 28
Full

Hourly Weather History & Observations

Time (CST) Temp. Windchill Dew Point Humidity Pressure Visibility Wind Dir Wind Speed Gust Speed Precip Events Conditions
12:15 AM 28.4 °F - 14.0 °F 55% 30.39 in 5.0 mi Calm Calm - N/A   Haze
12:35 AM 28.4 °F - 14.0 °F 55% 30.38 in 5.0 mi Calm Calm - N/A   Haze
12:55 AM 28.4 °F - 14.0 °F 55% 30.38 in 4.0 mi North - - N/A   Haze
1:15 AM 28.4 °F - 14.0 °F 55% 30.39 in 4.0 mi Calm Calm - N/A   Haze
1:35 AM 26.6 °F - 14.0 °F 59% 30.39 in 1.8 mi North - - N/A   Haze
1:55 AM 28.4 °F - 14.0 °F 55% 30.39 in 5.0 mi North - - N/A   Haze
2:15 AM 26.6 °F - 12.2 °F 55% 30.39 in 6.0 mi Calm Calm - N/A   Haze
2:35 AM 26.6 °F - 12.2 °F 55% 30.39 in 5.0 mi North - - N/A   Haze
2:55 AM 26.6 °F - 12.2 °F 55% 30.40 in 6.0 mi Calm Calm - N/A   Haze
3:15 AM 26.6 °F - 12.2 °F 55% 30.40 in 8.0 mi Calm Calm - N/A   Clear
3:35 AM 26.6 °F - 12.2 °F 55% 30.39 in 6.0 mi Calm Calm - N/A   Haze
3:55 AM 26.6 °F - 12.2 °F 55% 30.39 in 8.0 mi Calm Calm - N/A   Clear
4:15 AM 26.6 °F - 12.2 °F 55% 30.39 in 8.0 mi North - - N/A   Clear
4:35 AM 24.8 °F - 12.2 °F 59% 30.39 in 5.0 mi Calm Calm - N/A   Haze
4:55 AM 26.6 °F - 12.2 °F 55% 30.39 in 6.0 mi Calm Calm - N/A   Haze
5:15 AM 24.8 °F - 10.4 °F 54% 30.39 in 7.0 mi Calm Calm - N/A   Clear
5:55 AM 23.0 °F - 10.4 °F 59% 30.39 in 7.0 mi North - - N/A   Clear
6:15 AM 24.8 °F - 10.4 °F 54% 30.40 in 7.0 mi Calm Calm - N/A   Clear
6:35 AM 23.0 °F - 10.4 °F 59% 30.40 in 7.0 mi North - - N/A   Clear
6:55 AM 24.8 °F - 12.2 °F 59% 30.41 in 7.0 mi Calm Calm - N/A   Clear
7:15 AM 24.8 °F - 10.4 °F 54% 30.41 in 7.0 mi Calm Calm - N/A   Clear
7:35 AM 28.4 °F - 14.0 °F 55% 30.41 in 6.0 mi Calm Calm - N/A   Haze
7:55 AM 32.0 °F - 17.6 °F 55% 30.41 in 5.0 mi Calm Calm - N/A   Haze
8:15 AM 33.8 °F - 21.2 °F 60% 30.42 in 6.0 mi Calm Calm - N/A   Haze
8:35 AM 35.6 °F - 23.0 °F 60% 30.42 in 7.0 mi Calm Calm - N/A   Clear
8:55 AM 39.2 °F - 26.6 °F 61% 30.43 in 7.0 mi Calm Calm - N/A   Clear
9:15 AM 42.8 °F - 30.2 °F 61% 30.43 in 8.0 mi Calm Calm - N/A   Clear
9:35 AM 46.4 °F - 32.0 °F 57% 30.43 in 8.0 mi Calm Calm - N/A   Clear
9:55 AM 51.8 °F - 35.6 °F 54% 30.43 in 10.0 mi Calm Calm - N/A   Clear
10:15 AM 53.6 °F - 37.4 °F 54% 30.43 in 8.0 mi Calm Calm - N/A   Clear
10:35 AM 55.4 °F - 39.2 °F 54% 30.43 in 9.0 mi South 5.8 mph - N/A   Clear
10:55 AM 57.2 °F - 41.0 °F 55% 30.42 in 9.0 mi South 3.5 mph - N/A   Clear
11:15 AM 59.0 °F - 42.8 °F 55% 30.40 in 9.0 mi South 4.6 mph - N/A   Clear
11:35 AM 60.8 °F - 44.6 °F 55% 30.39 in 9.0 mi SSW 9.2 mph - N/A   Clear
11:55 AM 60.8 °F - 44.6 °F 55% 30.38 in 9.0 mi SW 8.1 mph - N/A   Clear
12:15 PM 62.6 °F - 44.6 °F 52% 30.36 in 10.0 mi SW 6.9 mph - N/A   Clear
12:35 PM 62.6 °F - 46.4 °F 55% 30.35 in 9.0 mi SSW 3.5 mph - N/A   Clear
12:55 PM 62.6 °F - 46.4 °F 55% 30.34 in 10.0 mi Calm Calm - N/A   Clear
1:15 PM 64.4 °F - 46.4 °F 52% 30.33 in 9.0 mi SSW 6.9 mph - N/A   Clear
1:35 PM 64.4 °F - 46.4 °F 52% 30.33 in 9.0 mi SSW 6.9 mph - N/A   Clear
1:55 PM 64.4 °F - 46.4 °F 52% 30.32 in 9.0 mi SSW 6.9 mph - N/A   Clear
2:15 PM 64.4 °F - 48.2 °F 56% 30.32 in 10.0 mi South 4.6 mph - N/A   Clear
2:35 PM 64.4 °F - 48.2 °F 56% 30.31 in 9.0 mi SW 4.6 mph - N/A   Clear
2:55 PM 64.4 °F - 46.4 °F 52% 30.30 in 10.0 mi SSW 8.1 mph - N/A   Clear
3:15 PM 62.6 °F - 46.4 °F 55% 30.30 in 8.0 mi South 5.8 mph - N/A   Clear
3:35 PM 62.6 °F - 46.4 °F 55% 30.30 in 9.0 mi SSW 4.6 mph - N/A   Clear
3:55 PM 60.8 °F - 44.6 °F 55% 30.30 in 9.0 mi Calm Calm - N/A   Clear
4:15 PM 59.0 °F - 42.8 °F 55% 30.29 in 9.0 mi South 3.5 mph - N/A   Clear
4:35 PM 55.4 °F - 39.2 °F 54% 30.29 in 10.0 mi Calm Calm - N/A   Clear
4:55 PM 48.2 °F - 35.6 °F 62% 30.29 in 9.0 mi Calm Calm - N/A   Clear
5:15 PM 46.4 °F - 33.8 °F 62% 30.29 in 10.0 mi Calm Calm - N/A   Clear
5:35 PM 42.8 °F - 32.0 °F 66% 30.29 in 10.0 mi Calm Calm - N/A   Clear
5:55 PM 42.8 °F - 32.0 °F 66% 30.29 in 10.0 mi North - - N/A   Clear
6:15 PM 39.2 °F - 32.0 °F 75% 30.30 in 10.0 mi North - - N/A   Clear
6:35 PM 39.2 °F - 32.0 °F 75% 30.30 in 10.0 mi Calm Calm - N/A   Clear
6:55 PM 37.4 °F - 32.0 °F 81% 30.30 in 10.0 mi Calm Calm - N/A   Clear
7:15 PM 37.4 °F - 30.2 °F 75% 30.31 in 10.0 mi Calm Calm - N/A   Clear
7:35 PM 35.6 °F - 30.2 °F 81% 30.31 in 10.0 mi Calm Calm - N/A   Clear
7:55 PM 35.6 °F - 30.2 °F 81% 30.31 in 9.0 mi Calm Calm - N/A   Clear
8:15 PM 35.6 °F - 28.4 °F 75% 30.31 in 9.0 mi Calm Calm - N/A   Clear
8:35 PM 33.8 °F - 26.6 °F 75% 30.32 in 9.0 mi Calm Calm - N/A   Clear
8:55 PM 33.8 °F - 24.8 °F 70% 30.32 in 8.0 mi Calm Calm - N/A   Clear
9:15 PM 33.8 °F - 23.0 °F 65% 30.32 in 5.0 mi Calm Calm - N/A   Haze
9:35 PM 33.8 °F - 23.0 °F 65% 30.32 in 8.0 mi Calm Calm - N/A   Clear
9:55 PM 32.0 °F - 23.0 °F 69% 30.32 in 7.0 mi Calm Calm - N/A   Clear
10:15 PM 32.0 °F - 21.2 °F 64% 30.32 in 6.0 mi Calm Calm - N/A   Haze
10:55 PM 32.0 °F 28.7 °F 19.4 °F 60% 30.32 in 7.0 mi SSE 3.5 mph - N/A   Clear
11:15 PM 32.0 °F - 19.4 °F 60% 30.33 in 8.0 mi Calm Calm - N/A   Clear
11:35 PM 32.0 °F - 19.4 °F 60% 30.33 in 7.0 mi Calm Calm - N/A   Clear
11:55 PM 32.0 °F - 19.4 °F 60% 30.33 in 9.0 mi Calm Calm - N/A   Clear